TimeEST,TemperatureF,Dew PointF,Humidity,Sea Level PressureIn,VisibilityMPH,Wind Direction,Wind SpeedMPH,Gust SpeedMPH,PrecipitationIn,Events,Conditions,WindDirDegrees,DateUTC
12:51 AM,37.0,24.1,59,29.94,10.0,WNW,9.2,-,N/A,,Clear,290,2012-11-09 05:51:00
1:51 AM,37.0,23.0,57,29.95,10.0,NW,10.4,-,N/A,,Clear,310,2012-11-09 06:51:00
2:51 AM,37.0,23.0,57,29.96,10.0,WNW,9.2,-,N/A,,Clear,300,2012-11-09 07:51:00
3:51 AM,37.0,21.9,54,29.97,10.0,WNW,8.1,-,N/A,,Clear,290,2012-11-09 08:51:00
4:51 AM,37.0,21.9,54,29.99,10.0,NW,12.7,-,N/A,,Clear,310,2012-11-09 09:51:00
5:51 AM,37.4,21.2,52,30.01,10.0,NW,9.2,-,N/A,,Clear,310,2012-11-09 10:51:00
6:51 AM,37.4,21.2,52,30.03,10.0,WNW,13.8,20.7,N/A,,Clear,300,2012-11-09 11:51:00
7:51 AM,41.0,24.1,51,30.06,10.0,NW,15.0,21.9,N/A,,Clear,310,2012-11-09 12:51:00
8:51 AM,44.1,24.1,45,30.07,10.0,NNW,10.4,20.7,N/A,,Clear,330,2012-11-09 13:51:00
9:51 AM,46.4,24.8,43,30.08,10.0,NW,11.5,23.0,N/A,,Clear,320,2012-11-09 14:51:00
10:51 AM,50.0,25.0,38,30.08,10.0,NW,16.1,21.9,N/A,,Partly Cloudy,320,2012-11-09 15:51:00
11:51 AM,52.0,26.1,37,30.07,10.0,WNW,17.3,-,N/A,,Scattered Clouds,300,2012-11-09 16:51:00
12:51 PM,54.0,25.0,33,30.06,10.0,WNW,20.7,25.3,N/A,,Scattered Clouds,290,2012-11-09 17:51:00
1:51 PM,55.0,25.0,31,30.06,10.0,WNW,13.8,-,N/A,,Scattered Clouds,300,2012-11-09 18:51:00
2:51 PM,55.0,25.0,31,30.06,10.0,WNW,15.0,24.2,N/A,,Scattered Clouds,290,2012-11-09 19:51:00
3:51 PM,54.0,26.1,34,30.08,10.0,NW,16.1,20.7,N/A,,Scattered Clouds,310,2012-11-09 20:51:00
4:51 PM,52.0,28.0,40,30.09,10.0,NW,13.8,20.7,N/A,,Scattered Clouds,310,2012-11-09 21:51:00
5:51 PM,50.0,30.0,46,30.13,10.0,NW,11.5,18.4,N/A,,Scattered Clouds,320,2012-11-09 22:51:00
6:51 PM,50.0,32.0,50,30.16,10.0,NW,17.3,26.5,N/A,,Scattered Clouds,320,2012-11-09 23:51:00
7:51 PM,48.0,32.0,54,30.18,10.0,WNW,8.1,-,N/A,,Scattered Clouds,300,2012-11-10 00:51:00
8:51 PM,48.0,33.1,56,30.19,10.0,NW,6.9,-,N/A,,Scattered Clouds,310,2012-11-10 01:51:00
9:51 PM,46.9,33.1,59,30.20,10.0,West,5.8,-,N/A,,Scattered Clouds,270,2012-11-10 02:51:00
10:51 PM,46.0,33.1,61,30.21,10.0,WSW,5.8,-,N/A,,Scattered Clouds,250,2012-11-10 03:51:00
11:51 PM,44.1,33.1,65,30.21,10.0,West,3.5,-,N/A,,Scattered Clouds,270,2012-11-10 04:51:00